SV1DAY-13 Weather Reports


time (UTC)temp
F
wind
direction
speed
knots
gust
knots
rain 1hr
in
rain 24hr
in
rain mn
in
humidity
%
barometer
mb
20260906100117 82 305 6.1 15.6 0.00 0.00 0.00 49 1013.6
20260906094549 81 289 8.7 18.2 0.00 0.00 0.00 52 1013.6
20260906093044 81 294 9.6 14.8 0.00 0.00 0.00 49 1013.7
20260906091559 82 263 10.4 16.5 0.00 0.00 0.00 48 1013.7
20260906090124 80 16 10.4 17.4 0.00 0.00 0.00 52 1013.7
20260906084555 80 290 13.0 19.1 0.00 0.00 0.00 53 1013.5
20260906083047 80 315 8.7 16.5 0.00 0.00 0.00 50 1013.7
20260906081552 79 304 10.4 18.2 0.00 0.00 0.00 52 1013.7
20260906080127 79 9 8.7 16.5 0.00 0.00 0.00 52 1013.8
20260906074605 78 360 5.2 15.6 0.00 0.00 0.00 52 1013.8
20260906073103 78 245 5.2 16.5 0.00 0.00 0.00 53 1013.7
20260906071546 77 315 7.8 17.4 0.00 0.00 0.00 54 1013.5
20260906070116 75 19 8.7 20.0 0.00 0.00 0.00 55 1013.4
20260906064553 75 41 9.6 20.0 0.00 0.00 0.00 55 1013.3
20260906063051 74 9 15.6 25.2 0.00 0.00 0.00 56 1013.1
20260906061545 74 272 13.9 21.7 0.00 0.00 0.00 55 1013.0
20260906060108 74 9 12.2 21.7 0.00 0.00 0.00 55 1012.9
20260906054555 74 272 11.3 18.2 0.00 0.00 0.00 55 1012.8
20260906053052 73 293 10.4 24.3 0.00 0.00 0.00 55 1012.5
20260906051556 73 44 10.4 20.0 0.00 0.00 0.00 55 1012.5
20260906050114 72 10 13.9 21.7 0.00 0.00 0.00 55 1012.4
20260906044548 70 360 13.0 21.7 0.00 0.00 0.00 55 1012.2
20260906043100 69 360 13.0 21.7 0.00 0.00 0.00 57 1012.1
20260906041602 69 360 11.3 20.9 0.00 0.00 0.00 57 1011.9
20260906040032 69 360 14.8 25.2 0.00 0.00 0.00 57 1012.0
20260906034613 69 281 17.4 24.3 0.00 0.00 0.00 57 1012.0
20260906033047 69 279 13.9 25.2 0.00 0.00 0.00 58 1011.9
20260906031548 69 360 17.4 26.1 0.00 0.00 0.00 58 1011.8
20260906030125 69 360 20.9 26.9 0.00 0.00 0.00 57 1011.8
20260906024553 69 266 21.7 30.4 0.00 0.00 0.00 57 1011.8
20260906023050 69 267 20.0 28.7 0.00 0.00 0.00 60 1012.0
20260906021545 70 269 17.4 25.2 0.00 0.00 0.00 59 1012.1
20260906020111 69 249 14.8 25.2 0.00 0.00 0.00 58 1012.3
20260906014555 69 270 20.0 26.1 0.00 0.00 0.00 56 1012.1
20260906013104 70 265 14.8 26.1 0.00 0.00 0.00 56 1012.2
20260906011548 70 279 14.8 22.6 0.00 0.00 0.00 56 1012.1
20260906010111 71 256 11.3 20.9 0.00 0.00 0.00 56 1012.2
20260906004603 71 267 8.7 18.2 0.00 0.00 0.00 56 1012.3
20260906003056 70 277 7.8 19.1 0.00 0.00 0.00 56 1012.2
20260906001547 69 33 9.6 15.6 0.00 0.00 0.00 56 1012.3
20260906000117 69 314 8.7 15.6 0.00 0.00 0.00 56 1012.4
20260905234543 69 307 7.0 15.6 0.00 0.00 0.00 57 1012.4
20260905233056 70 279 7.0 13.0 0.00 0.00 0.00 57 1012.8
20260905231555 71 270 7.0 13.0 0.00 0.00 0.00 57 1012.9
20260905230120 72 9 7.0 15.6 0.00 0.00 0.00 57 1013.0
20260905224546 72 265 10.4 19.1 0.00 0.00 0.00 57 1012.8
20260905223042 74 253 7.0 13.0 0.00 0.00 0.00 58 1012.9
20260905221556 75 314 6.1 16.5 0.00 0.00 0.00 54 1013.0
20260905220120 75 277 9.6 17.4 0.00 0.00 0.00 56 1012.8
20260905214601 75 289 9.6 19.1 0.00 0.00 0.00 56 1012.8
20260905213059 75 281 11.3 19.1 0.00 0.00 0.00 55 1012.8
20260905211551 75 286 11.3 20.9 0.00 0.00 0.00 55 1012.5
20260905210112 75 311 15.6 26.9 0.00 0.00 0.00 55 1012.8
20260905204555 76 360 16.5 25.2 0.00 0.00 0.00 54 1012.6
20260905203106 76 360 16.5 26.9 0.00 0.00 0.00 53 1012.7
20260905201541 77 9 20.0 32.2 0.00 0.00 0.00 51 1012.3
20260905200110 77 26 24.3 33.9 0.00 0.00 0.00 50 1011.7
20260905194554 77 304 25.2 33.0 0.00 0.00 0.00 49 1012.0
20260905193051 77 314 26.9 38.2 0.00 0.00 0.00 51 1011.7
20260905191547 76 257 23.5 35.6 0.00 0.00 0.00 52 1011.9
20260905190109 77 282 22.6 37.4 0.00 0.00 0.00 49 1012.0
20260905184601 77 15 26.9 37.4 0.00 0.00 0.00 48 1012.0
20260905183054 77 9 23.5 36.5 0.00 0.00 0.00 51 1011.7
20260905181547 77 284 26.9 37.4 0.00 0.00 0.00 49 1011.3
20260905180042 77 288 26.1 37.4 0.00 0.00 0.00 51 1011.4
20260905174543 76 360 24.3 36.5 0.00 0.00 0.00 53 1011.4
20260905173058 74 360 25.2 36.5 0.00 0.00 0.00 57 1011.2
20260905171602 73 9 24.3 35.6 0.00 0.00 0.00 56 1010.7
20260905164600 75 360 26.1 37.4 0.00 0.00 0.00 58 1011.0
20260905163056 77 307 25.2 37.4 0.00 0.00 0.00 51 1011.1
20260905161504 78 275 24.3 35.6 0.00 0.00 0.00 47 1011.1
20260905160122 77 360 28.7 38.2 0.00 0.00 0.00 50 1010.4
20260905154618 77 9 22.6 34.8 0.00 0.00 0.00 52 1010.8
20260905153047 78 360 26.1 36.5 0.00 0.00 0.00 52 1010.5
20260905151559 79 273 22.6 32.2 0.00 0.00 0.00 49 1010.7
20260905150109 79 12 14.8 27.8 0.00 0.00 0.00 49 1011.1
20260905144555 79 360 19.1 29.5 0.00 0.00 0.00 50 1011.1
20260905143102 80 286 13.0 25.2 0.00 0.00 0.00 48 1011.4
20260905141551 79 232 9.6 25.2 0.00 0.00 0.00 49 1011.8
20260905140118 77 12 17.4 27.8 0.00 0.00 0.00 55 1011.6
20260905134543 77 82 17.4 28.7 0.00 0.00 0.00 55 1011.4
20260905133042 79 309 11.3 21.7 0.00 0.00 0.00 54 1011.5
20260905131556 78 315 9.6 23.5 0.00 0.00 0.00 55 1011.9
20260905130121 79 275 6.1 15.6 0.00 0.00 0.00 55 1011.7
20260905124652 80 306 9.6 15.6 0.00 0.00 0.00 55 1011.6
20260905123048 80 44 5.2 13.9 0.00 0.00 0.00 54 1011.8
20260905121540 79 34 7.8 13.9 0.00 0.00 0.00 55 1011.7
20260905120106 77 24 7.8 18.2 0.00 0.00 0.00 55 1011.9
20260905114607 77 281 10.4 18.2 0.00 0.00 0.00 56 1011.8
20260905113054 80 9 7.8 16.5 0.00 0.00 0.00 55 1012.0
20260905111612 80 307 13.9 19.1 0.00 0.00 0.00 54 1011.8
20260905110116 83 15 7.0 12.2 0.00 0.00 0.00 50 1011.8
20260905104607 83 281 6.1 10.4 0.00 0.00 0.00 49 1011.7
20260905103041 81 315 1.7 11.3 0.00 0.00 0.00 51 1011.8
20260905101558 81 49 4.3 10.4 0.00 0.00 0.00 52 1011.9